[Iaude] MPEC X66: 2023 XD1 [a=2.46,e=0.59,i=5.2,H=27.2]

mpec at marsden.cfa.harvard.edu mpec at marsden.cfa.harvard.edu
Tue Dec 5 09:33:15 EST 2023


M.P.E.C. 2023-X66                              Issued 2023 December 5, 14:31 UT

     The Minor Planet Electronic Circulars contain information on unusual
         minor planets, routine data on comets and natural satellites,
         and occasional editorial announcements.  They are published
    on behalf of Division F of the International Astronomical Union by the
          Minor Planet Center, Smithsonian Astrophysical Observatory,
                          Cambridge, MA 02138, U.S.A.
			  
             Prepared using the Tamkin Foundation Computer Network

                              MPC at CFA.HARVARD.EDU
            URL https://www.minorplanetcenter.net/    ISSN 1523-6714

                                    2023 XD1                                    


Observations:
     K23X01D  C2023 12 04.32648104 52 11.433+16 46 29.16         20.44GVEX066F51
     K23X01D  C2023 12 04.34070704 52 32.344+16 49 53.17         20.09GVEX066F51
     K23X01D  C2023 12 04.35486604 52 53.109+16 53 15.67         19.92GVEX066F51
     K23X01D*1C2023 12 04.39411804 53 38.443+17 01 36.44         20.35GVEX066G96
     K23X01D 1C2023 12 04.39925804 53 46.054+17 02 48.16         20.22GVEX066G96
     K23X01D 1C2023 12 04.40439304 53 53.617+17 03 58.79         20.52GVEX066G96
     K23X01D 1C2023 12 04.40951904 54 01.181+17 05 09.31         20.10GVEX066G96
     K23X01D KC2023 12 04.48468004 55 54.460+17 22 24.00         19.81GVEX066I52
     K23X01D KC2023 12 04.48583104 55 56.190+17 22 40.00               VEX066I52
     K23X01D KC2023 12 04.48697704 55 57.990+17 22 55.70               VEX066I52
     K23X01D KC2023 12 04.48812104 55 59.750+17 23 11.20         20.06GVEX066I52
     K23X01D  C2023 12 04.61191704 59 14.373+17 53 01.61         19.95GVEX066F52
     K23X01D  C2023 12 05.48653105 23 14.952+21 13 56.13         20.2 GVEX066H01
     K23X01D  C2023 12 05.49288505 23 25.429+21 15 19.43         20.4 GVEX066H01
     K23X01D  C2023 12 05.50026705 23 37.646+21 16 55.91         19.9 GVEX066H01
     K23X01D KC2023 12 05.50488505 23 45.380+21 18 08.10         20.19GVEX066I52
     K23X01D KC2023 12 05.50580305 23 47.000+21 18 19.40               VEX066I52
     K23X01D KC2023 12 05.50672605 23 48.510+21 18 31.00         20.55GVEX066I52
     K23X01D  C2023 12 05.50722905 23 49.177+21 18 27.00         20.6 GVEX066H01
     K23X01D KC2023 12 05.50764105 23 50.040+21 18 44.60         20.12GVEX066I52

Observer details:
F51 Pan-STARRS 1, Haleakala.  Observers J. Herman, T. Lowe, P. Minguez, A.
    Schultz, I. Smith.  Measurers K. Chambers, T. de Boer, J. Fairlamb, H.
    Gao, M. Huber, C.-C. Lin, E. Magnier, Y. Ramanjooloo, R. Wainscoat, R.
    Weryk.  1.8-m Ritchey-Chretien + CCD.
F52 Pan-STARRS 2, Haleakala.  Observers J. Herman, T. Lowe, P. Minguez, A.
    Schultz, I. Smith.  Measurers K. Chambers, T. de Boer, J. Fairlamb, H.
    Gao, M. Huber, C.-C. Lin, E. Magnier, Y. Ramanjooloo, R. Wainscoat, R.
    Weryk.  1.8-m Ritchey-Chretien + CCD.
G96 Mt. Lemmon Survey.  Observer J. K. Hogan.  Measurers E. C. Beshore, D.
    Fay, J. B. Fazekas, D. C. Fuls, A. R. Gibbs, A. D. Grauer, H. Groeller, J.
    K. Hogan, R. A. Kowalski, S. M. Larson, G. J. Leonard, D. Rankin, R. L.
    Seaman, F. C. Shelly, K. W. Wierzchos.  1.5-m reflector + 10K CCD.
H01 Magdalena Ridge Observatory, Socorro.  Observers W. H. Ryan, E. V. Ryan.
    Measurer W. H. Ryan.  2.4-m f/8.9 Ritchey-Chretien + CCD.
I52 Steward Observatory, Mt. Lemmon Station.  Observer G. J. Leonard.
    Measurers E. C. Beshore, D. Fay, J. B. Fazekas, D. C. Fuls, A. R. Gibbs,
    A. D. Grauer, H. Groeller, J. K. Hogan, R. A. Kowalski, S. M. Larson, G.
    J. Leonard, D. Rankin, R. L. Seaman, F. C. Shelly, K. W. Wierzchos.  1.0-m
    prime focus + CCD.

Orbital elements:
2023 XD1                                                 Earth MOID = 0.0316 AU
Epoch 2023 Sept. 13.0 TT = JDT 2460200.5                Veres                   
M 337.50610              (2000.0)            P               Q                  
n   0.25595271     Peri.    4.56921     +0.20263041     -0.97536777             
a   2.4567609      Node    73.75846     +0.89554757     +0.14856261             
e   0.5860583      Incl.    5.20926     +0.39615082     +0.16305478             
P   3.85           H   27.29          G   0.15           U   8                  
Residuals in seconds of arc
231204 F51  0.0   0.1-    231204 I52  0.5-  0.3-    231205 H01  0.1+  0.2-
231204 F51  0.0   0.1-    231204 I52  1.0-  0.1-    231205 I52  1.0-  1.0+
231204 F51  0.0   0.2-    231204 I52  0.3-  0.1-    231205 I52  0.4+  0.2+
231204 G96  0.8+  0.3+    231204 I52  0.2-  0.2-    231205 I52  0.2+  0.2-
231204 G96  0.8+  0.7+    231204 F52  0.1-  0.3+    231205 H01  0.1-  0.1-
231204 G96  0.1+  0.2+    231205 H01  0.0   0.0     231205 I52  0.4+  1.4+
231204 G96  0.7-  0.3-    231205 H01  0.0   0.0

Ephemeris:
2023 XD1                 a,e,i = 2.46, 0.59, 5                   q = 1.0170
Date    TT    R. A. (2000) Decl.     Delta      r    Elong.  Phase     V
2023 11 05    01 27 09.3 -16 23 51   0.1450  1.1118   143.7    31.9    24.7
...
2023 11 20    01 58 41.9 -12 40 05   0.07869 1.0493   139.4    37.8    23.4
...
2023 11 28    02 56 44.0 -02 56 30   0.04837 1.0287   149.5    29.1    22.0
...
2023 12 04    04 43 40.4 +15 30 22   0.03432 1.0198   173.3     6.5    20.5
2023 12 05    05 09 55.5 +19 24 05   0.03356 1.0189   173.1     6.7    20.5
2023 12 06    05 38 09.7 +23 08 55   0.03340 1.0182   168.3    11.3    20.6
...
2023 12 12    08 21 20.6 +35 20 34   0.04347 1.0172   137.6    40.7    22.1
...
2023 12 20    10 05 45.8 +35 27 10   0.07140 1.0253   123.8    52.9    23.6
...
2024 01 04    10 55 21.9 +33 19 41   0.1319  1.0675   126.8    47.6    24.8

M. P. C. Staff               (C) Copyright 2023 MPC           M.P.E.C. 2023-X66





More information about the Iaude mailing list